ROMMA est une association bénévole à but non lucratif. Votre soutien est indispensable : ADHERER à ROMMA ou FAIRE un DON

Saint-Vallier-de-Thiey - (06, Alpes-Maritimes)

Côte-d'Azur (723 m)   Longitude: 06° 50' 21" E   Latitude: 43° 42' 8" N Station partenaire n°150
 

Détail journalier du     <<     >>

Température Precipitation Humidité Pression Vent Dir Rafale Dir. rafale
Heure (°C) (mm) (%) (hPa) (km/h) (km/h)
01:00 15.902810153NNO15NNO
02:00 12.205010153O10NE
03:00 10.906210153NNO8NNO
04:00 10.306310152NO8NNO
05:00 11.105010142NNO13NNO
06:00 10.604610143N18N
07:00 9.005810143NNO13NNO
08:00 8.806610142NNO6NNO
09:00 11.406910151NNO6NNO
10:00 16.206810161---8S
11:00 16.607510163SE11SSE
12:00 17.307210174SE13SSE
13:00 18.206810174SSE15SSE
14:00 17.906910174SE13ESE
15:00 18.906510175SE18ESE
16:00 18.406910175SE15S
17:00 18.606810174ESE16ESE
18:00 17.907210173SSE15SSE
19:00 14.908210181SSE10S
20:00 12.808710192NNO6SSE
21:00 12.408810191NNE6NE
22:00 11.908910211N6NNE
23:00 11.209110211N5N
minuit 12.408610222N10N

Graphique du 10-10-2019

 

Serveur OMMA